Temperature
20 19 19 19 19 19 19 19 19 19 19 19 19 19 19 19 19 19 19 19 19 18 18 18 19 18 18 18 18 18 18 18 18 18 18 18 18 18 18 18 18 17 18
20 20 19 19 19 19 19 19 19 19 19 19 19 19 19 19 19 19 19 19 19 18 18 18 18 18 18 18 18 18 18 18 18 18 18 18 18 18 18 18 17 17 17
20 20 19 19 19 19 19 19 19 19 19 19 19 19 19 19 19 19 19 19 19 19 19 18 18 18 18 18 18 18 18 18 18 18 18 18 18 18 17 17 17 17 17
20 20 19 19 19 19 19 19 19 19 19 19 19 19 19 19 19 19 18 18 18 18 18 18 18 18 18 18 18 18 18 18 18 18 18 18 17 17 17 17 17 17 17
20 19 19 19 19 19 19 19 19 19 19 19 18 18 18 18 18 18 18 18 18 18 18 18 18 18 18 18 18 18 18 18 18 17 18 17 17 17 17 17 17 17 17
19 19 19 19 19 19 19 19 19 19 18 18 18 18 18 18 18 18 18 18 18 18 18 18 18 18 18 18 18 18 18 18 18 17 17 17 17 17 17 17 17 17 17
19 19 19 19 19 19 19 18 18 18 18 18 18 18 18 18 18 18 18 18 18 18 18 18 18 18 18 18 18 18 18 18 18 17 17 17 17 17 17 17 17 17 17
19 19 19 19 19 19 18 18 18 18 18 18 18 18 18 18 18 18 18 18 18 18 18 18 18 17 18 18 18 18 18 18 17 17 17 17 17 17 17 17 17 17 17
19 19 19 19 19 18 18 18 18 18 18 18 18 18 18 18 18 18 18 18 18 18 18 18 18 17 17 18 18 18 18 18 17 17 17 17 17 17 17 17 17 17 17
19 19 19 19 18 18 18 18 18 18 18 18 18 18 18 18 18 18 18 18 18 18 18 18 18 18 17 17 18 18 18 18 17 17 17 17 17 17 17 17 17 17 17
19 19 18 18 18 18 18 18 18 18 18 18 18 18 18 18 18 18 18 18 18 18 18 18 17 18 17 17 18 17 17 18 18 18 18 18 17 17 17 17 17 17 17
19 18 18 18 18 18 18 18 18 18 18 18 18 18 18 18 18 18 18 18 18 18 18 17 17 17 17 17 17 17 17 18 18 18 18 17 17 17 17 17 17 17 17
19 19 18 18 18 18 18 18 18 18 18 18 18 18 18 18 18 18 18 18 18 18 18 17 17 17 17 17 17 17 17 17 18 18 18 18 17 17 17 17 17 17 17
19 19 18 18 18 18 18 18 18 18 18 18 18 18 18 18 18 18 18 18 18 18 18 17 17 17 17 17 17 17 17 17 18 18 18 17 17 17 17 17 17 17 17
19 19 19 18 18 18 18 18 18 18 18 18 18 18 18 18 18 18 18 18 18 18 17 17 17 17 17 17 17 17 17 18 18 17 17 17 17 17 17 17 17 17 17
19 19 19 18 18 18 18 18 18 18 18 18 18 18 18 18 17 17 18 18 18 18 17 17 17 17 17 17 17 17 18 18 18 17 17 17 17 17 17 17 17 17 17
19 19 19 19 18 18 18 18 18 18 18 18 18 18 18 18 17 17 18 18 18 17 17 17 17 17 17 17 17 17 18 17 18 17 17 17 17 17 17 17 17 17 17
19 19 19 19 18 18 18 18 18 18 18 18 18 18 18 18 18 18 18 18 18 17 17 17 17 17 17 17 17 17 17 17 18 17 17 17 17 17 17 17 17 17 17
19 19 19 19 18 18 18 18 18 18 18 18 18 18 18 18 18 18 18 18 17 17 17 17 17 17 17 17 17 17 17 17 17 17 17 17 17 17 17 17 17 17 17
19 19 19 19 18 18 18 18 18 18 18 18 18 18 18 18 18 18 18 17 17 17 17 17 17 17 17 17 17 17 17 17 17 17 17 17 17 17 17 17 17 17 17
19 19 19 19 18 18 18 18 18 18 18 18 18 18 18 18 18 18 18 17 17 17 17 17 17 17 17 17 17 17 17 17 17 17 17 17 17 17 17 17 17 17 17
19 19 19 19 18 18 18 18 18 18 18 18 18 18 18 18 18 18 18 17 17 17 17 17 17 17 17 17 17 17 17 17 17 17 17 17 17 17 17 17 17 17 17
19 19 19 19 19 18 18 18 18 18 18 18 18 18 18 18 18 18 18 17 17 17 17 17 17 17 17 17 17 17 17 17 17 17 17 17 17 17 17 17 17 17 17
20 19 19 19 19 18 18 18 18 18 18 18 18 18 18 18 18 18 17 17 17 17 17 17 17 17 17 17 17 17 17 17 17 16 17 17 17 17 17 17 17 17 17
20 20 19 19 19 18 18 18 18 18 18 18 18 18 18 18 18 18 17 17 17 17 17 17 17 17 17 17 17 17 17 17 17 16 16 17 17 17 17 17 17 17 17
20 20 19 19 19 18 18 18 18 18 18 18 18 18 18 18 18 18 18 17 17 17 17 17 17 17 17 17 17 17 17 17 17 17 16 16 16 17 17 17 16 17 16
Wind_Speed
2 3 7 9 9 9 11 11 12 13 14 15 15 16 17 17 17 17 17 17 17 16 16 15 15 16 15 14 14 14 13 13 13 13 13 13 13 13 13 13 13 12 14
3 5 9 10 10 10 11 12 12 13 13 14 14 15 15 16 16 16 16 16 16 16 15 15 15 16 15 14 13 13 12 12 12 12 13 12 12 12 12 12 12 11 13
4 6 9 11 11 10 11 12 12 12 13 13 13 13 14 14 15 15 15 15 16 15 15 15 15 14 14 13 13 12 11 11 11 11 11 9 10 11 11 12 13 13 13
6 7 9 11 11 11 11 11 12 12 12 13 13 12 12 13 13 13 13 14 14 14 14 13 14 13 13 12 12 11 11 11 11 10 8 8 8 10 11 12 13 13 12
5 6 9 10 10 10 10 11 11 12 12 12 12 12 12 11 11 12 12 12 13 13 13 13 13 12 12 11 10 10 10 10 10 9 7 7 7 9 11 11 12 12 12
5 6 9 10 9 9 9 10 10 11 11 11 11 11 11 10 10 11 11 12 12 12 12 11 11 11 11 10 9 9 10 10 9 8 7 7 7 9 10 11 11 11 11
4 5 8 9 8 8 8 9 9 10 10 10 10 10 10 9 9 9 9 11 11 11 11 10 10 10 10 9 8 8 9 9 9 8 7 7 7 9 9 10 11 11 11
5 5 6 7 8 8 8 8 8 9 9 9 9 8 8 8 8 8 8 9 11 11 11 10 10 9 9 8 8 8 8 8 8 7 7 6 8 9 9 10 11 11 10
4 3 3 4 6 6 7 7 7 7 7 7 7 7 7 7 7 7 8 8 9 10 10 10 9 9 8 7 7 7 8 8 7 6 7 6 8 9 9 10 10 10 10
2 2 2 3 3 4 5 6 6 6 6 6 6 6 6 5 5 6 6 7 8 9 9 8 8 8 7 7 7 7 7 7 6 6 6 7 9 10 10 10 10 10 10
1 0 1 1 2 2 3 5 4 5 5 4 4 4 3 2 3 4 6 7 7 7 7 7 7 7 7 6 6 6 6 5 5 5 6 8 9 10 10 10 10 10 9
1 0 1 1 1 2 2 3 3 3 3 2 2 2 2 2 2 2 5 6 6 6 6 6 6 5 4 3 4 5 3 4 5 5 7 9 10 10 10 10 10 10 10
2 2 1 1 1 2 1 2 2 2 2 1 1 2 2 1 1 0 1 2 2 3 2 3 2 2 2 2 2 2 3 4 4 5 6 9 10 10 10 10 10 10 10
2 1 1 1 1 1 1 2 2 2 1 1 1 1 1 0 1 1 1 0 1 1 1 1 1 2 2 3 3 3 3 4 4 5 6 9 10 11 11 10 10 10 10
2 1 1 1 1 1 1 1 2 2 2 2 2 2 2 1 0 1 1 1 1 1 2 1 1 2 2 2 3 3 4 4 4 5 5 8 9 10 10 10 9 9 9
2 2 1 1 1 1 1 1 1 2 2 1 2 2 3 3 2 1 1 1 1 2 2 2 2 2 2 2 2 2 3 4 3 4 5 6 8 9 10 10 10 10 10
4 3 2 2 1 1 1 1 1 1 1 1 1 2 3 3 3 1 1 1 1 2 2 2 2 1 2 2 2 2 2 3 3 4 5 5 6 8 9 9 10 10 10
3 3 2 2 2 1 1 1 1 1 2 1 2 2 2 3 3 2 1 1 1 2 2 2 2 2 2 2 1 1 1 2 3 4 4 5 5 6 7 9 10 10 10
5 4 3 2 2 1 1 1 1 1 1 1 1 2 2 2 3 2 1 1 1 1 2 2 2 2 2 2 1 1 1 2 2 3 4 4 5 5 6 7 9 10 10
4 3 3 2 1 1 1 1 1 1 1 0 1 2 2 2 3 3 2 1 2 2 1 2 2 2 2 1 1 0 1 1 1 2 3 3 4 5 5 6 6 7 9
3 3 3 2 2 1 1 1 1 1 0 1 1 1 1 1 2 2 1 2 2 2 2 3 3 3 2 2 2 1 1 1 1 1 2 2 3 4 4 5 5 6 6
5 4 4 3 2 2 1 1 1 1 1 0 1 1 1 0 1 2 2 2 2 2 3 3 3 2 1 2 2 1 1 2 1 0 1 2 2 2 3 4 5 5 6
5 6 5 5 4 3 2 2 2 2 2 2 2 2 2 1 0 0 1 2 2 3 3 3 3 3 2 1 1 2 2 1 1 1 1 1 2 1 2 2 4 5 5
6 5 4 4 4 3 3 3 3 2 1 1 0 0 1 1 1 0 1 2 2 2 2 3 3 3 3 2 1 1 1 2 1 1 1 1 1 1 2 2 3 4 4
4 4 4 4 4 3 3 3 3 2 1 0 0 1 1 1 1 0 1 1 1 1 2 2 2 3 3 2 2 1 1 1 1 2 2 2 1 1 2 2 2 2 3
3 4 4 4 3 3 3 3 3 3 2 1 0 0 1 1 1 1 1 1 1 2 2 2 2 3 2 2 1 1 2 2 2 2 3 2 2 2 2 1 1 1 2
Wind_Direction
214 180 160 147 140 134 131 128 127 130 130 132 135 138 138 139 142 144 144 145 144 142 139 138 140 139 137 138 137 135 133 132 131 132 132 131 130 130 129 128 125 123 123
154 145 148 146 140 135 132 129 126 125 127 130 134 136 138 141 143 144 146 147 146 145 142 141 140 139 139 141 139 136 133 132 131 132 133 134 135 135 134 135 132 131 130
126 132 138 139 136 133 131 129 127 126 127 129 132 134 139 141 143 147 148 150 149 148 147 144 141 141 141 141 139 138 137 136 134 131 131 131 136 139 141 142 139 136 133
122 123 133 136 136 134 132 130 129 130 131 134 135 136 138 140 143 146 147 149 151 152 152 149 146 145 143 143 143 142 143 144 141 135 129 129 137 143 145 145 142 140 137
111 122 134 135 136 134 133 130 129 131 133 135 136 138 141 143 146 149 150 153 155 156 155 154 150 148 147 147 149 147 147 148 148 142 130 130 139 148 150 147 145 143 141
117 127 136 135 135 135 134 132 133 134 135 137 141 141 143 145 148 153 156 158 159 158 157 156 155 153 151 150 152 154 154 154 152 145 141 141 146 154 154 151 148 147 144
121 127 135 137 137 139 139 137 137 136 135 136 141 145 148 149 151 155 161 164 161 159 159 159 159 156 156 156 157 160 158 157 152 146 148 152 158 160 159 158 152 151 149
123 127 136 138 138 139 138 139 138 138 138 138 141 146 150 151 152 159 163 162 164 164 163 163 166 166 167 166 164 161 159 158 155 154 157 163 169 168 166 165 159 158 158
106 115 122 137 139 138 140 140 140 141 143 142 147 151 152 158 158 161 165 163 168 170 168 168 173 173 174 174 169 167 166 167 158 161 170 176 181 179 175 171 168 168 168
89 97 118 121 126 139 149 151 148 148 149 150 153 157 159 164 168 166 166 169 177 177 175 177 180 181 181 181 173 174 176 174 167 171 178 186 190 188 186 179 177 177 177
90 64 114 112 119 134 152 159 157 162 159 162 163 160 158 140 142 160 165 177 180 178 180 185 190 190 189 188 183 183 184 181 172 180 187 194 194 196 196 188 188 186 185
144 158 115 111 120 129 151 141 137 151 151 154 150 149 133 110 119 143 171 178 182 179 182 186 193 195 190 184 193 189 185 188 190 195 199 201 199 201 197 196 195 195 194
165 157 128 124 122 121 131 137 135 131 130 143 141 135 128 109 92 72 182 192 185 181 171 183 182 171 163 175 183 184 190 196 204 207 209 207 203 201 200 201 202 202 201
128 144 145 125 108 118 141 154 149 141 151 162 196 169 132 80 4 334 317 269 202 187 177 192 186 179 174 183 186 195 203 207 206 210 215 210 207 209 208 208 211 209 208
163 176 134 103 109 113 127 181 158 171 177 189 207 209 183 178 221 267 275 264 243 186 181 187 190 167 171 187 194 200 210 212 207 208 216 217 214 214 213 214 216 213 211
194 207 170 136 128 118 122 148 168 183 180 179 211 218 203 202 217 226 231 235 235 200 190 186 185 168 174 184 195 210 218 217 214 210 213 220 220 216 214 217 220 222 219
198 199 186 169 118 117 146 185 178 189 174 183 220 217 209 204 209 202 167 184 215 187 162 153 154 156 164 167 184 204 209 209 205 209 212 219 221 220 221 223 228 229 226
187 188 201 185 141 153 164 184 201 190 182 204 219 221 214 206 203 186 171 214 211 159 141 139 149 152 157 166 177 206 194 193 203 205 204 214 219 222 223 227 232 234 231
186 184 191 200 166 179 172 170 152 138 170 228 231 235 230 217 206 190 185 215 174 137 137 149 135 140 147 153 162 197 205 196 197 197 196 212 217 219 224 228 234 234 232
182 182 188 201 197 159 109 99 97 79 48 274 252 254 246 237 216 192 188 186 156 136 128 127 133 124 137 147 125 23 307 237 202 203 202 206 216 224 227 230 233 236 235
175 181 190 192 192 129 97 122 147 161 49 19 322 302 274 244 219 200 187 167 158 156 160 147 135 127 124 118 103 46 11 360 218 211 193 200 217 226 220 225 228 230 236
195 198 197 198 188 175 160 151 141 129 108 102 4 5 337 288 217 202 172 170 159 154 150 149 145 132 133 129 133 114 11 356 356 241 191 201 221 219 223 226 223 224 231
205 205 206 202 194 188 162 115 92 74 47 31 21 9 350 356 353 198 178 167 161 161 172 175 163 156 167 160 148 151 158 228 308 341 261 215 213 218 235 237 233 232 233
213 206 202 197 193 191 169 153 150 154 187 249 236 325 349 351 340 215 177 160 156 164 179 193 179 171 167 186 201 206 195 167 178 320 333 306 243 242 257 254 251 241 234
204 191 180 174 186 189 179 174 165 179 199 219 56 16 355 358 350 4 158 144 151 164 175 181 169 166 174 185 185 177 175 167 186 199 273 307 333 301 283 269 265 253 238
193 180 162 158 177 185 178 180 181 185 184 164 174 323 338 356 359 22 103 134 157 162 174 180 170 164 169 169 179 186 184 181 189 191 230 265 293 305 305 282 275 263 248
Height
1503 1501 1501 1502 1503 1504 1504 1505 1506 1507 1508 1509 1511 1513 1515 1517 1519 1521 1523 1526 1528 1530 1532 1534 1536 1538 1540 1542 1544 1546 1548 1549 1551 1552 1553 1554 1555 1556 1557 1558 1559 1560 1561
1503 1501 1501 1503 1504 1505 1506 1507 1508 1508 1510 1511 1513 1515 1517 1518 1520 1523 1525 1527 1529 1531 1533 1535 1536 1539 1541 1543 1545 1547 1548 1550 1551 1553 1554 1555 1556 1557 1558 1559 1560 1561 1562
1504 1503 1503 1504 1506 1507 1508 1509 1510 1510 1512 1512 1514 1516 1518 1520 1521 1523 1525 1528 1530 1532 1534 1536 1538 1540 1542 1544 1546 1547 1549 1551 1552 1553 1554 1555 1557 1558 1559 1560 1561 1562 1563
1506 1506 1506 1507 1508 1509 1510 1510 1511 1512 1513 1514 1515 1517 1519 1521 1522 1524 1526 1528 1530 1532 1534 1537 1539 1541 1543 1545 1546 1548 1550 1551 1552 1554 1555 1556 1557 1558 1559 1560 1561 1562 1563
1508 1508 1509 1509 1510 1511 1511 1512 1513 1514 1515 1516 1517 1519 1520 1522 1523 1525 1527 1528 1530 1533 1535 1537 1539 1541 1543 1545 1547 1549 1550 1552 1553 1554 1555 1556 1558 1559 1560 1561 1562 1563 1564
1509 1510 1511 1511 1512 1512 1513 1514 1515 1515 1516 1517 1518 1520 1521 1523 1524 1525 1527 1529 1531 1533 1535 1538 1540 1542 1544 1546 1547 1549 1551 1552 1554 1555 1556 1557 1558 1559 1560 1561 1562 1563 1565
1511 1512 1512 1513 1514 1514 1515 1515 1516 1517 1518 1519 1520 1521 1522 1523 1524 1525 1526 1528 1530 1533 1535 1538 1540 1542 1544 1546 1548 1549 1551 1553 1554 1555 1556 1557 1558 1559 1560 1561 1562 1564 1565
1512 1513 1514 1515 1515 1516 1516 1517 1518 1519 1519 1520 1521 1521 1522 1523 1524 1524 1525 1526 1529 1532 1535 1538 1540 1543 1545 1547 1548 1550 1551 1553 1554 1555 1556 1558 1559 1560 1560 1561 1562 1564 1565
1514 1515 1515 1516 1516 1517 1518 1518 1519 1519 1520 1521 1522 1522 1522 1522 1523 1523 1525 1526 1529 1532 1535 1538 1540 1542 1545 1547 1549 1550 1552 1553 1554 1555 1556 1558 1559 1560 1560 1561 1562 1564 1565
1515 1516 1516 1517 1517 1518 1519 1519 1520 1520 1521 1522 1522 1523 1522 1522 1523 1523 1524 1526 1529 1532 1534 1537 1540 1542 1545 1547 1549 1550 1552 1553 1554 1555 1556 1557 1558 1559 1560 1561 1562 1563 1564
1515 1516 1517 1517 1518 1519 1519 1520 1521 1521 1522 1522 1523 1523 1523 1523 1523 1523 1524 1526 1529 1531 1534 1537 1539 1542 1544 1546 1548 1550 1552 1553 1554 1555 1556 1557 1558 1559 1560 1561 1562 1562 1564
1515 1516 1517 1518 1519 1519 1520 1521 1521 1522 1522 1523 1523 1523 1523 1523 1523 1524 1525 1527 1529 1532 1534 1537 1539 1541 1544 1546 1548 1549 1551 1552 1553 1555 1556 1556 1557 1558 1559 1560 1561 1562 1563
1516 1517 1518 1519 1520 1520 1520 1521 1521 1522 1523 1523 1524 1524 1524 1525 1525 1525 1526 1528 1529 1532 1534 1536 1538 1541 1543 1545 1547 1548 1550 1551 1552 1554 1555 1556 1556 1557 1558 1559 1560 1561 1562
1518 1518 1519 1520 1520 1521 1521 1521 1522 1523 1523 1524 1525 1525 1525 1526 1526 1526 1527 1528 1530 1531 1533 1535 1538 1540 1542 1544 1545 1547 1549 1550 1551 1552 1553 1555 1555 1556 1557 1558 1559 1560 1561
1519 1520 1520 1521 1521 1522 1522 1522 1522 1523 1524 1525 1526 1526 1526 1527 1527 1527 1528 1529 1530 1532 1533 1535 1537 1539 1541 1542 1544 1546 1547 1549 1550 1551 1552 1554 1554 1555 1556 1557 1558 1559 1560
1521 1521 1522 1522 1522 1522 1522 1522 1523 1524 1525 1526 1526 1527 1527 1527 1528 1527 1528 1529 1530 1532 1533 1534 1536 1538 1539 1541 1543 1544 1546 1547 1548 1550 1551 1552 1553 1554 1554 1556 1557 1558 1559
1522 1523 1523 1523 1523 1523 1523 1523 1523 1524 1525 1526 1527 1527 1528 1528 1528 1528 1528 1529 1530 1531 1533 1534 1535 1537 1538 1540 1541 1543 1544 1546 1547 1548 1550 1551 1552 1552 1553 1554 1555 1556 1557
1523 1524 1524 1524 1524 1524 1524 1524 1524 1525 1526 1527 1527 1528 1528 1529 1529 1529 1529 1530 1531 1532 1533 1533 1534 1535 1537 1538 1540 1542 1543 1544 1546 1547 1548 1549 1550 1551 1552 1553 1553 1554 1555
1524 1524 1524 1525 1525 1525 1525 1524 1525 1525 1526 1527 1528 1529 1529 1529 1529 1530 1530 1530 1531 1532 1533 1534 1534 1535 1536 1538 1539 1541 1542 1543 1545 1546 1547 1547 1548 1549 1550 1550 1551 1552 1553
1524 1525 1525 1525 1525 1525 1525 1524 1525 1526 1527 1528 1528 1529 1530 1530 1530 1530 1530 1531 1532 1532 1533 1534 1534 1535 1536 1538 1539 1540 1541 1542 1543 1544 1545 1546 1547 1547 1548 1548 1549 1550 1551
1524 1524 1525 1525 1525 1525 1524 1524 1525 1526 1527 1528 1529 1530 1530 1530 1530 1531 1531 1531 1532 1533 1533 1534 1535 1536 1537 1538 1538 1539 1540 1541 1542 1543 1544 1544 1545 1546 1546 1547 1547 1548 1548
1523 1524 1524 1525 1525 1525 1525 1525 1526 1527 1528 1529 1529 1530 1530 1530 1531 1531 1531 1531 1532 1533 1533 1534 1535 1535 1536 1538 1538 1539 1539 1541 1541 1542 1542 1543 1544 1544 1545 1545 1546 1546 1546
1522 1523 1523 1524 1525 1525 1526 1526 1527 1528 1528 1529 1530 1530 1530 1530 1530 1531 1531 1531 1532 1532 1533 1533 1534 1535 1536 1537 1538 1539 1539 1539 1540 1541 1541 1542 1542 1543 1543 1544 1544 1544 1544
1521 1522 1523 1524 1524 1525 1526 1527 1527 1528 1528 1529 1530 1530 1531 1531 1531 1531 1531 1531 1531 1532 1532 1533 1534 1534 1535 1536 1537 1538 1539 1539 1539 1539 1540 1540 1541 1541 1541 1541 1542 1542 1542
1521 1522 1522 1522 1523 1525 1526 1527 1528 1528 1529 1529 1530 1530 1530 1530 1530 1530 1530 1530 1530 1531 1531 1532 1533 1533 1534 1535 1536 1536 1536 1537 1538 1538 1538 1538 1539 1539 1539 1540 1540 1540 1540
1520 1521 1521 1522 1523 1524 1525 1526 1527 1528 1528 1529 1529 1529 1530 1530 1530 1530 1530 1529 1530 1530 1530 1530 1531 1532 1533 1533 1534 1534 1535 1535 1535 1536 1535 1535 1536 1536 1537 1537 1537 1537 1537